CHECKMATE 2

导读 | 星芒AI

CHECKMATE 2 是由美国太空发展局(SDA)支持的实验性卫星,旨在验证低地球轨道(LEO)军事通信与数据共享能力。该卫星是 CHECKMATE 项目的一部分,该项目由洛克希德·马丁公司主导,联合多家企业共同开发。CHECKMATE 2 于 2023 年发射,专注于测试星间通信、数据中继和网络架构,以支持未来星座建设。其目标是提升美军在轨系统的互操作性与响应速度,为构建下一代太空作战网络奠定基础。

基本信息
目录编号:
56167
目录名称:
CHECKMATE 2
国际标识:
2023-050F
轨道中心:
EARTH
卫星名称:
CHECKMATE 2
卫星全名:
--
卫星状态:
在轨 (已飞行943 天)
发射日期:
2023-04-02 UTC
国别 :
美国 (US)
星等 :
--
轨道信息
数据来源 国际轨道数据 AOE轨道数据
星历时间 2025-10-31T06:24:55+0800
9小时前
查看轨道信息
2025-10-31T05:00:00+0800
10小时前
查看轨道信息
半长轴 7323.979km 7323.979km
偏心率 0.0006257 0.0006075
轨道倾角 81.002° 81.002°
近地点辐角 204.855° 206.223°
升交点赤经 291.565° 291.621°
平近点角 155.231° 219.976°
近地点 941.261km 941.394km
远地点 950.427km 950.294km
周期 103.963分钟 103.963分钟
每日圈数 13.851034 13.851033
详细信息
使用方式:
暂无
2D轨道图
3D轨道图
轨道高度分析图
轨道倾角分析图
轨道综合分析图
查看轨道综合分析图